Location: Home
(42.5358°N, 72.7383°W)
Time: 09:48:57
(UTC-05:00)

Courier 1B - Pass Details

Date: 07 December 2021
Orbit: 962 x 1209 km, 28.3° (Epoch: 21 January)

Event Time Altitude Azimuth Distance (km) Brightness Sun altitude
Rises 13:08:37 0° 201° (SSW) 4,098 12.3 21.8°
Reaches altitude 10° 13:14:21 10° 168° (SSE) 3,127 11.2 21.4°
Maximum altitude 13:16:14 11° 154° (SSE) 3,045 10.8 21.3°
Drops below altitude 10° 13:18:07 10° 139° (SE) 3,110 10.6 21.2°
Sets 13:23:44 0° 107° (ESE) 4,031 10.6 20.7°
